GW4613 Weather Reports


time (UTC)temp
C
wind
direction
speed
KPH
gust
KPH
rain 1hr
cm
rain 24hr
cm
rain mn
cm
humidity
%
barometer
mb
20260503190401 15 301 9.7 16.1 0.00 0.00 0.00 35 1017.0
20260503185857 15 314 6.4 16.1 0.00 0.00 0.00 36 1017.0
20260503185354 14 215 3.2 12.9 0.00 0.00 0.00 35 1016.8
20260503184854 15 87 8.0 11.3 0.00 0.00 0.00 34 1017.1
20260503184350 15 12 6.4 17.7 0.00 0.00 0.00 31 1017.4
20260503183845 15 68 8.0 24.1 0.00 0.00 0.00 32 1017.2
20260503183343 14 220 1.6 4.8 0.00 0.00 0.00 33 1017.2
20260503182840 14 303 1.6 16.1 0.00 0.00 0.00 34 1017.3
20260503182340 15 288 12.9 17.7 0.00 0.00 0.00 34 1017.3
20260503181836 15 172 6.4 14.5 0.00 0.00 0.00 34 1017.1
20260503181333 14 199 9.7 12.9 0.00 0.00 0.00 33 1017.3
20260503180829 14 312 6.4 12.9 0.00 0.00 0.00 32 1017.1
20260503180328 14 342 12.9 24.1 0.00 0.00 0.00 32 1017.2
20260503175824 15 217 0.0 11.3 0.00 0.00 0.00 31 1017.1
20260503175322 14 328 3.2 11.3 0.00 0.00 0.00 32 1017.2
20260503174817 13 227 3.2 22.5 0.00 0.00 0.00 40 1017.4
20260503174316 13 201 6.4 16.1 0.00 0.00 0.00 37 1017.5
20260503173811 13 305 9.7 12.9 0.00 0.00 0.00 34 1017.5
20260503173307 13 55 12.9 25.7 0.00 0.00 0.00 37 1017.4
20260503172804 13 311 8.0 14.5 0.00 0.00 0.00 35 1017.6
20260503172301 13 301 4.8 12.9 0.00 0.00 0.00 37 1017.8
20260503171757 13 229 9.7 11.3 0.00 0.00 0.00 33 1017.8
20260503171255 12 249 8.0 11.3 0.00 0.00 0.00 35 1017.9
20260503170752 13 309 8.0 20.9 0.00 0.00 0.00 37 1018.0
20260503170249 13 295 6.4 17.7 0.00 0.00 0.00 39 1017.8
20260503160211 11 297 14.5 17.7 0.00 0.00 0.00 40 1018.6
20260503150641 9 314 3.2 12.9 0.00 0.00 0.00 45 1019.2
20260503150137 9 249 6.4 16.1 0.00 0.00 0.00 48 1019.1
20260503131030 9 322 3.2 6.4 0.00 0.00 0.00 52 1019.0
20260503130528 8 130 1.6 4.8 0.00 0.00 0.00 54 1019.1
20260503110418 2 126 0.0 1.6 0.00 0.00 0.00 78 1018.1
20260503090320 4 268 1.6 1.6 0.00 0.00 0.00 69 1017.2
20260503081248 5 257 1.6 6.4 0.00 0.00 0.00 68 1017.1
20260503080743 5 85 3.2 4.8 0.00 0.00 0.00 68 1017.0
20260503080242 5 265 0.0 0.0 0.00 0.00 0.00 69 1016.8
20260503072718 5 292 1.6 3.2 0.00 0.00 0.00 69 1016.7
20260503072214 5 353 3.2 3.2 0.00 0.00 0.00 67 1016.5
20260503071711 5 287 3.2 3.2 0.00 0.00 0.00 68 1016.4
20260503071208 5 296 3.2 4.8 0.00 0.00 0.00 71 1016.5
20260503070704 5 244 0.0 1.6 0.00 0.00 0.00 68 1016.3
20260503070203 5 43 1.6 4.8 0.00 0.00 0.00 68 1016.4
20260503060127 4 258 0.0 3.2 0.00 0.00 0.00 73 1016.2
20260503055119 4 282 0.0 1.6 0.00 0.00 0.00 71 1016.3
20260503054614 5 282 3.2 4.8 0.00 0.00 0.00 70 1016.3
20260503054111 5 276 3.2 4.8 0.00 0.00 0.00 70 1016.0
20260503053609 5 210 0.0 1.6 0.00 0.00 0.00 67 1016.1
20260503053108 5 244 3.2 4.8 0.00 0.00 0.00 66 1016.3
20260503052604 5 261 1.6 4.8 0.00 0.00 0.00 65 1016.2
20260503052100 5 270 1.6 1.6 0.00 0.00 0.00 67 1016.5
20260503051555 5 7 3.2 4.8 0.00 0.00 0.00 64 1016.2
20260503051054 5 291 0.0 1.6 0.00 0.00 0.00 64 1016.3
20260503050549 5 345 0.0 0.0 0.00 0.00 0.00 66 1016.4
20260503050047 6 291 0.0 1.6 0.00 0.00 0.00 65 1016.5
20260503045543 5 7 1.6 4.8 0.00 0.00 0.00 63 1016.6
20260503045041 6 312 0.0 3.2 0.00 0.00 0.00 65 1016.5
20260503044538 5 315 3.2 6.4 0.00 0.00 0.00 64 1016.7
20260503044035 5 316 1.6 1.6 0.00 0.00 0.00 65 1016.6
20260503043531 5 6 1.6 3.2 0.00 0.00 0.00 65 1016.4
20260503043028 5 298 1.6 1.6 0.00 0.00 0.00 65 1016.6
20260503042525 6 297 1.6 1.6 0.00 0.00 0.00 63 1016.5
20260503042021 6 41 0.0 6.4 0.00 0.00 0.00 62 1016.5
20260503041518 6 35 3.2 4.8 0.00 0.00 0.00 61 1016.5
20260503041016 6 341 1.6 9.7 0.00 0.00 0.00 61 1016.5
20260503040513 6 81 0.0 1.6 0.00 0.00 0.00 62 1016.4
20260503040010 6 1 3.2 3.2 0.00 0.00 0.00 61 1016.4
20260503035507 6 49 1.6 3.2 0.00 0.00 0.00 61 1016.3
20260503035005 6 22 3.2 6.4 0.00 0.00 0.00 60 1016.4
20260503034501 6 268 0.0 1.6 0.00 0.00 0.00 61 1016.5
20260503033958 7 83 4.8 11.3 0.00 0.00 0.00 59 1016.6
20260503033456 6 6 9.7 12.9 0.00 0.00 0.00 60 1016.5
20260503032954 6 283 1.6 9.7 0.00 0.00 0.00 61 1016.3
20260503032452 6 352 3.2 3.2 0.00 0.00 0.00 61 1016.2
20260503031949 6 14 4.8 9.7 0.00 0.00 0.00 61 1016.4
20260503031447 7 340 3.2 3.2 0.00 0.00 0.00 60 1016.0
20260503030943 7 45 1.6 6.4 0.00 0.00 0.00 59 1016.1
20260503030440 7 60 4.8 4.8 0.00 0.00 0.00 59 1016.2
20260503025937 7 336 3.2 11.3 0.00 0.00 0.00 58 1016.2
20260503025434 7 347 8.0 11.3 0.00 0.00 0.00 59 1016.4
20260503024932 7 19 4.8 11.3 0.00 0.00 0.00 59 1016.2
20260503024428 7 27 0.0 4.8 0.00 0.00 0.00 59 1016.0
20260503023925 7 353 8.0 11.3 0.00 0.00 0.00 58 1016.2
20260503023422 7 23 1.6 6.4 0.00 0.00 0.00 59 1016.3
20260503022919 7 56 6.4 11.3 0.00 0.00 0.00 58 1016.3
20260503022419 7 22 6.4 11.3 0.00 0.00 0.00 59 1016.3
20260503021915 7 327 3.2 3.2 0.00 0.00 0.00 59 1016.3
20260503021412 7 29 4.8 6.4 0.00 0.00 0.00 60 1016.3
20260503020910 7 57 3.2 4.8 0.00 0.00 0.00 59 1016.2
20260503020408 7 324 1.6 4.8 0.00 0.00 0.00 58 1016.3
20260503015904 8 18 3.2 6.4 0.00 0.00 0.00 57 1016.4
20260503015401 8 351 4.8 9.7 0.00 0.00 0.00 57 1016.1
20260503014856 8 20 6.4 11.3 0.00 0.00 0.00 57 1016.3
20260503014354 8 72 8.0 14.5 0.00 0.00 0.00 57 1016.0
20260503013852 8 28 4.8 4.8 0.00 0.00 0.00 58 1016.0
20260503013348 8 327 4.8 11.3 0.00 0.00 0.00 56 1015.9
20260503012845 8 28 3.2 6.4 0.00 0.00 0.00 56 1016.0
20260503012343 8 51 12.9 14.5 0.00 0.00 0.00 54 1015.9
20260503011840 9 34 3.2 11.3 0.00 0.00 0.00 51 1015.6
20260503011337 9 49 4.8 9.7 0.00 0.00 0.00 50 1015.6
20260503010833 9 338 3.2 12.9 0.00 0.00 0.00 50 1015.5
20260503010330 9 41 0.0 6.4 0.00 0.00 0.00 50 1015.4
20260503005826 9 349 6.4 9.7 0.00 0.00 0.00 50 1015.4
20260503005324 9 74 4.8 6.4 0.00 0.00 0.00 51 1015.3
20260503004820 9 47 3.2 4.8 0.00 0.00 0.00 50 1015.0
20260503004318 9 11 3.2 4.8 0.00 0.00 0.00 49 1015.2
20260503003815 10 331 6.4 14.5 0.00 0.00 0.00 49 1015.0
20260503003312 10 341 6.4 11.3 0.00 0.00 0.00 48 1014.9
20260503002809 10 355 6.4 11.3 0.00 0.00 0.00 49 1015.1
20260503002306 10 314 6.4 11.3 0.00 0.00 0.00 48 1014.9
20260503001802 10 50 3.2 3.2 0.00 0.00 0.00 48 1014.7
20260503001259 10 70 4.8 9.7 0.00 0.00 0.00 48 1014.9
20260503000757 10 19 6.4 9.7 0.00 0.00 0.00 47 1014.8
20260503000254 10 343 3.2 6.4 0.00 0.00 0.00 49 1014.6
20260502235751 10 350 4.8 6.4 0.00 0.00 0.00 48 1014.6
20260502235249 10 51 3.2 6.4 0.00 0.00 0.00 48 1014.4
20260502234745 10 10 4.8 6.4 0.00 0.00 0.00 48 1014.2
20260502234242 10 72 3.2 11.3 0.00 0.00 0.00 47 1014.4
20260502233738 10 60 6.4 11.3 0.00 0.00 0.00 47 1014.3
20260502233235 10 57 6.4 6.4 0.00 0.00 0.00 47 1014.2
20260502232731 11 17 3.2 6.4 0.00 0.00 0.00 44 1014.0
20260502232228 11 16 6.4 11.3 0.00 0.00 0.00 44 1014.1
20260502231725 11 60 3.2 6.4 0.00 0.00 0.00 44 1013.9
20260502231222 11 40 3.2 6.4 0.00 0.00 0.00 44 1013.9
20260502230721 11 346 3.2 3.2 0.00 0.00 0.00 43 1013.9
20260502230218 11 48 4.8 11.3 0.00 0.00 0.00 44 1014.0
20260502225714 11 298 3.2 11.3 0.00 0.00 0.00 41 1014.0
20260502225211 11 266 6.4 9.7 0.00 0.00 0.00 42 1013.9
20260502224707 11 339 1.6 3.2 0.00 0.00 0.00 41 1013.9
20260502224204 11 66 1.6 6.4 0.00 0.00 0.00 42 1013.9
20260502223702 11 43 8.0 17.7 0.00 0.00 0.00 40 1013.9
20260502223200 11 311 0.0 3.2 0.00 0.00 0.00 41 1013.8
20260502222657 12 173 4.8 4.8 0.00 0.00 0.00 44 1013.7
20260502222154 12 74 0.0 3.2 0.00 0.00 0.00 40 1013.7
20260502221649 12 8 3.2 3.2 0.00 0.00 0.00 38 1013.7
20260502221147 12 93 0.0 3.2 0.00 0.00 0.00 39 1013.7
20260502220643 12 1 3.2 6.4 0.00 0.00 0.00 39 1013.6
20260502220139 11 309 1.6 6.4 0.00 0.00 0.00 42 1013.4
20260502215637 12 8 9.7 12.9 0.00 0.00 0.00 39 1013.6
20260502215133 12 270 3.2 4.8 0.00 0.00 0.00 39 1013.6
20260502214630 12 262 6.4 6.4 0.00 0.00 0.00 41 1013.6
20260502214122 12 21 1.6 9.7 0.00 0.00 0.00 41 1013.6
20260502213620 12 358 3.2 16.1 0.00 0.00 0.00 38 1013.4
20260502213117 12 254 4.8 11.3 0.00 0.00 0.00 42 1013.8
20260502212616 12 112 4.8 11.3 0.00 0.00 0.00 38 1013.5
20260502212113 12 2 11.3 16.1 0.00 0.00 0.00 38 1013.6
20260502211608 12 293 3.2 6.4 0.00 0.00 0.00 40 1013.6
20260502211105 12 274 11.3 16.1 0.00 0.00 0.00 37 1013.6
20260502210602 12 311 6.4 9.7 0.00 0.00 0.00 39 1013.5
20260502210059 12 260 8.0 16.1 0.00 0.00 0.00 39 1013.7
20260502205555 12 273 1.6 4.8 0.00 0.00 0.00 44 1013.7
20260502205053 12 232 11.3 16.1 0.00 0.00 0.00 42 1013.8
20260502204549 12 316 8.0 12.9 0.00 0.00 0.00 40 1013.6
20260502204048 12 293 9.7 11.3 0.00 0.00 0.00 42 1013.5
20260502203544 12 250 12.9 17.7 0.00 0.00 0.00 39 1013.6
20260502203041 12 250 8.0 22.5 0.00 0.00 0.00 40 1013.5
20260502202537 13 291 3.2 9.7 0.00 0.00 0.00 48 1013.6
20260502202036 12 329 6.4 16.1 0.00 0.00 0.00 41 1013.6
20260502201531 12 259 8.0 12.9 0.00 0.00 0.00 43 1013.7
20260502201028 12 275 3.2 24.1 0.00 0.00 0.00 40 1013.8
20260502200524 12 7 9.7 24.1 0.00 0.00 0.00 40 1013.7
20260502200022 12 38 6.4 22.5 0.00 0.00 0.00 40 1013.7
20260502195519 12 296 9.7 12.9 0.00 0.00 0.00 47 1013.7
20260502195015 12 283 8.0 12.9 0.00 0.00 0.00 40 1013.7
20260502194507 12 286 6.4 14.5 0.00 0.00 0.00 44 1013.8
20260502194003 12 318 8.0 12.9 0.00 0.00 0.00 42 1014.0
20260502193501 11 290 8.0 11.3 0.00 0.00 0.00 44 1014.2
20260502192956 12 284 8.0 11.3 0.00 0.00 0.00 42 1014.0
20260502192453 12 349 0.0 9.7 0.00 0.00 0.00 43 1014.0
20260502191949 12 99 3.2 9.7 0.00 0.00 0.00 42 1014.1
20260502191447 12 28 1.6 9.7 0.00 0.00 0.00 47 1014.2
20260502190944 11 3 3.2 11.3 0.00 0.00 0.00 41 1014.2